カタログに戻る

STARLINK-2500

運用中通信VLEO
NORAD 48485·PAYLOAD·🇺🇸 United States

打ち上げ May 9, 2021 から Cape Canaveral Space Force Station

Loading…

次のパス (今後24時間)

TLE

最新Source: CelesTrak SupGP

元期: Sep 14, 2026, 22:00 UTC

1 48485C 21040BK  26257.91715278  .00011005  00000+0  35386-3 0  2579
2 48485  53.1586  33.1102 0001218  87.6084  96.7995 15.31698407    14

AllMySatでSTARLINK-2500をリアルタイム追跡

Download on the App Store